STARLINK-3122 (49445 NORAD) Tracking and Keplerian Element Data

This shows tracking and keplerian element data for the satellite.

Feedback or suggestion? Click here.




ElementValue
Catalog49445
NameSTARLINK-3122
Epoch Orbit370
Epoch Day15.91668981
Epoch Year2022
RAAN180.2432
Inclination53.2173
Eccentricity0.0001746
Argument of Perigee34.233
Mean Anonmoly74.0349
Mean Motion15.54120163
Decay Rate-0.00650401
L11 49445U 21104AP 22015.91668981 -.00650401 00000+0 -10668-1 0 9991
L22 49445 53.2173 180.2432 0001746 34.2330 74.0349 15.54120163 3707

Live tracking and technical data element details for STARLINK-3122 (NORAD 49445). STARLINK-3122 can be tracked NOW for your location showing map with azimuth and elevation plus other details from your city location.

Track the satellite on the map from your city or location and see movement details for azimuth, elevation, latitude, longitude, range, height, and movement on the map or in text.







IsCatalogInMostPopularTable: catalog: 49445, numindb: 7
Update: records affected: 1



GetName: 49445 STARLINK-3122

Hit Count: updated at: Thu, 20 Jan 2022 18:14:28 GMT